Location: Unspecified
(0.0000°N, 0.0000°E)
Time: 02:22:20
(UTC+00:00)

Courier 1B Rocket - Visible Passes

Search period start: 26 January 2015 00:00
Search period end: 05 February 2015 00:00
Orbit: 921 x 1202 km, 28.2° (Epoch: 24 January)

Date Brightness Start Highest point End Pass type
(mag) Time Alt. Az. Time Alt. Az. Time Alt. Az.
26 Jan 5.2 20:02:39 10° WNW 20:10:30 85° NNE 20:12:21 56° ESE visible
26 Jan 7.7 21:57:52 10° W 21:58:48 13° W 21:58:48 13° W visible
27 Jan 7.3 05:41:34 10° SSW 05:45:34 18° SSE 05:49:44 10° ESE visible
27 Jan 5.5 19:01:31 10° NW 19:09:12 59° NNE 19:16:14 12° ESE visible
27 Jan 6.2 20:55:46 10° W 21:02:42 44° SW 21:02:42 44° SW visible
28 Jan 7.5 04:42:13 10° S 04:44:16 12° SSE 04:46:32 10° SE visible
28 Jan 5.7 19:54:03 10° WNW 20:01:51 66° SSW 20:06:36 25° SE visible
28 Jan 7.5 21:50:26 10° WSW 21:53:04 17° SW 21:53:04 17° SW visible
29 Jan 6.8 05:32:05 10° SSW 05:37:18 27° SSE 05:42:34 10° E visible
29 Jan 5.4 18:52:41 10° WNW 19:00:34 87° NNE 19:08:20 10° ESE visible
29 Jan 6.8 20:47:53 10° W 20:54:36 31° SSW 20:56:56 26° S visible
30 Jan 7.2 04:31:55 10° SSW 04:36:08 19° SSE 04:40:25 10° ESE visible
30 Jan 6.4 19:45:49 10° W 19:53:14 44° SSW 20:00:27 10° SE visible
30 Jan 7.6 21:43:40 10° SW 21:47:11 15° SSW 21:47:11 15° SSW visible
31 Jan 7.5 03:32:13 10° S 03:34:49 13° SSE 03:37:35 10° SE visible
31 Jan 6.0 05:22:57 10° SW 05:28:56 44° SSE 05:34:50 10° E visible
31 Jan 5.9 18:44:09 10° WNW 18:51:54 65° SSW 18:59:37 10° SE visible
31 Jan 7.3 20:40:28 10° WSW 20:46:12 21° SSW 20:50:51 12° SSE visible
01 Feb 6.6 04:22:24 10° SSW 04:27:52 29° SSE 04:33:15 10° E visible
01 Feb 7.0 19:37:58 10° W 19:44:42 30° SSW 19:51:17 10° SSE visible
01 Feb 7.8 21:38:44 10° SSW 21:39:40 10° SSW 21:40:19 10° SSW visible
02 Feb 7.0 03:25:44 19° SSE 03:26:40 20° SSE 03:31:15 10° ESE visible
02 Feb 5.2 05:14:05 10° SW 05:20:29 71° SSE 05:26:42 10° ENE visible
02 Feb 6.6 18:35:58 10° W 18:43:18 44° SSW 18:50:38 10° SE visible
02 Feb 7.7 20:33:42 10° SW 20:37:57 15° SSW 20:41:53 10° S visible
03 Feb 5.8 04:16:05 25° SSW 04:19:30 46° SSE 04:25:30 10° E visible
03 Feb 7.5 19:30:36 10° WSW 19:36:19 21° SSW 19:41:51 10° SSE visible
04 Feb 6.6 03:19:57 28° SE 03:19:57 28° SE 03:24:01 10° E visible
04 Feb 4.9 05:06:25 14° WSW 05:12:00 72° NNW 05:18:14 10° NE visible
04 Feb 7.2 18:28:11 10° W 18:34:48 30° SSW 18:41:24 10° SSE visible
04 Feb 7.9 20:28:30 10° SSW 20:29:52 10° SSW 20:30:56 10° S visible
